User: anonymous   Login
Location: Unspecified
(0.0000°N, 0.0000°E)
Time: 18:53:40
(UTC+00:00)
Language:

TIANWANG 1A (TW-1A) - Orbit

View from above orbital plane
View from above orbital plane
View from above satellite
View from above satellite

Ground track
Ground track

The orbit data is extracted from the following two-line orbital elements,

1 40928U 15051D   19341.36508834  .00001935  00000-0  47836-4 0  9990
2 40928  97.1306   8.8016 0011301 160.2279 328.5680 15.41626497235611
Epoch (UTC): 07 December 2019 08:45:43
Eccentricity: 0.0011301
inclination: 97.1306°
perigee height: 433 km
apogee height: 449 km
right ascension of ascending node: 8.8016°
argument of perigee: 160.2279°
revolutions per day: 15.41626497
mean anomaly at epoch: 328.5680°
orbit number at epoch: 23561

The dashed part of the orbit path shows where the satellite is in the earth's shadow,  

DLR